Air Resources Laboratory banner image
Air Resources Laboratory web site National Oceanic and Atmospheric Administration (NOAA)

ut roundup


Office: SLC

ASUS45 KSLC 102310
RWRUT

UTAH REGIONAL WEATHER ROUNDUP
NATIONAL WEATHER SERVICE SALT LAKE CITY UT
500 PM MDT WED AUG 10 2022

UTZ101>105-107>111-110000-

NORTHERN UTAH

CITY           SKY/WX    TMP DP  RH WIND       PRES   REMARKS
BRIGHAM CITY   MOSUNNY   90  45  21 MISG      30.14F
DUGWAY         PTSUNNY   92  51  24 NW9       30.13F
HILL AFB       SUNNY     88  52  28 NW10      30.15F
LOGAN          MOSUNNY   90  54  29 N8        30.15F
OGDEN          PTSUNNY   92  52  25 NW9       30.14F
SALT LAKE CITY PTSUNNY   95  54  25 NW14      30.10F HX  93
TOOELE VALLEY  MOSUNNY   90  61  37 N7        30.13F
WENDOVER       PTSUNNY   86  55  34 NW13      30.16F
HEBER CITY       N/A     86  52  30 E3        30.20F

$$

UTZ024>027-106-112>120-110000-

CENTRAL/NORTHEAST UTAH

CITY           SKY/WX    TMP DP  RH WIND       PRES   REMARKS
PROVO AIRPORT  PTSUNNY   94  50  22 VRB6      30.12F HX  91
MOAB/CANYONLAN MOSUNNY   97  45  16 W6        30.09F HX  93
DELTA          CLOUDY    90  46  22 S10G18    30.14F
MANTI            N/A     87  50  27 S10       30.20S
PRICE          MOSUNNY   94  41  16 S14G21    30.22F HX  90
VERNAL         MOSUNNY   96  41  15 VRB3      30.17F HX  92

$$

UTZ121>131-110000-

SOUTHERN UTAH

CITY           SKY/WX    TMP DP  RH WIND       PRES   REMARKS
BRYCE CANYON   PTSUNNY   79  47  32 SE8       30.40S
CEDAR CITY     TSTM      86  53  32 E9        30.23S
MILFORD        MOSUNNY   90  55  30 VRB3G18   30.15F
PANGUITCH      MOSUNNY   82  45  26 S12       30.33R
ST GEORGE      PTCLDY    88  61  40 SW14      30.06R
HANKSVILLE     SUNNY     99  39  12 S10G20    30.11F HX  94
KANAB          SUNNY     90  54  29 CALM      30.21F
BLANDING         N/A     89  40  18 E10       30.32F

$$

REGIONAL REPORTS     COLORADO/ARIZONA

CITY           SKY/WX    TMP DP  RH WIND       PRES   REMARKS
CRAIG, CO      MOSUNNY   95  41  15 NE6       30.25F HX  91
GRAND JUNCTION MOSUNNY   99  45  15 W9        30.11F HX  95
RIFLE, CO      MOSUNNY   97  40  14 N7        30.17F HX  92
MONTROSE, CO   MOSUNNY   94  42  16 W13       30.20F HX  90
CORTEZ, CO     MOSUNNY   86  49  27 CALM      30.26F
COLORADO CITY    N/A     82  55  39 SW10      30.23R
PAGE, AZ       LGT RAIN  88  59  37 E16G26    30.13R
GRAND CANYON   CLOUDY    69  59  70 S6        30.34F
KINGMAN, AZ    CLOUDY    80  65  59 E10       30.12F
FLAGSTAFF, AZ  HVY RAIN  62  59  90 CALM      30.42S FOG

$$

REGIONAL REPORTS    NEVADA/IDAHO/WYOMING

CITY           SKY/WX    TMP DP  RH WIND       PRES   REMARKS
LAS VEGAS, NV  CLOUDY    89  62  40 S10       30.01F
ELY, NY        LGT RAIN  61  58  90 NW7       30.37F
ELKO, NV       LGT RAIN  64  62  93 CALM      30.25S
POCATELLO, ID  PTSUNNY   85  58  39 NW10      30.17F
BURLEY, ID     CLOUDY    80  60  50 W10G17    30.19R
EVANSTON, WY   MOSUNNY   87  43  21 SW14G26   30.34F
ROCK SPRINGS,  MOSUNNY   91  32  12 MISG      30.29F

$$




Office: LKN ASUS65 KLKN 101256 RTPLKN Regional Temperature And Precipitation Table...Early Morning National Weather Service Elko NV 556 AM PDT Wed Aug 10 2022 ***Automated Airport Stations*** Values represent lows over the last 12 hours... Highs over the last 24 hours and precipitation over the last 24 hours...ending at 4 AM PST/5 AM PDT today. .BR LKN 0810 P DH04/TAIRZX/DH04/TAIRZP/PPDRZZ/SFDRZZ/SDIRZZ : :ID Station Elev / Max / Min / Pcpn / :.................................................................... : EKO : Elko ASOS 5074 : 86 / 59 / 0.14 / ELY : Ely ASOS 6262 : 87 / 59 / 0.17 / P68 : Eureka ASOS 5936 : 87 / 60 / 0.15 / TPH : Tonopah ASOS 5395 : 86 / 67 / 0.01 / ENV : Wendover AWOS 4236 : 94 / 75 / T / WMC : Winnemucca ASOS 4314 : 87 / 64 / 0.18 / .END ***Manual synoptic reporting stations in north and central Nevada*** Values reflect the previous 24 hours ending at 4 AM PST/5 AM PDT *Snow stations may only report during periods of snowfall* .BR LKN 0810 P DH04/TAIRZX/TAIRZN/PPDRZZ/SFDRZZ/SDIRZZ : Snow Snow :ID Station Elev Max / Min / Pcpn / Fall / Dpth :.................................................................... : TLKN2 : Elko NWS Office 5235 : 90 / 62 / 0.08 / 0.0 / 0 TELN2 : Ely Snow 6487 : M / M / M / 0.0 / 0 TWIN2 : Winnemucca Snow 4355 : M / M / M / 0.0 / 0 .END ***COOPERATIVE STATIONS IN NORTH AND CENTRAL NEVADA*** VALUES REFLECT THE PREVIOUS 24 HOURS REPORT TIME AS INDICATED .BR LKN 0810 P DH04/TAIRZX/TAIRZN/PPDRZZ/SFDRZZ/SDIRZZ : Snow Snow :ID Station Elev Time / Max / Min / Pcpn / Fall / Dpth :.................................................................... : MOMN2 : Moorman Ranch 6539 5 AM: 85 / 53 / 0.65 / 0.0 / 0 .END M = Missing data T = Trace amounts ASOS = Automated Surface Observing System AWOS = Automated Weather Observation System NWS = National Weather Service DCP = Data Collection Platform These data are preliminary and have not undergone final quality control (QC) by NCEI. Therefore, these data are subject to revision. Final and certified data can be accessed at the National Centers For Environmental Information (NCEI) - www.ncei.noaa.gov $$